Wind_Speed
56 56 50 43 43 43 43 42 33 30 29 27 27 28 27 23 23 22 22 23 25 24 21 16 15 15 19 19 21 24 23 21
57 52 50 49 44 44 42 39 32 29 29 27 27 30 29 26 22 23 23 23 23 26 21 19 15 16 18 21 23 23 24 25
49 42 44 44 42 40 36 34 30 27 30 28 28 30 29 29 25 21 23 24 22 25 23 21 18 17 17 20 24 26 26 26
52 46 46 47 43 37 37 34 30 31 33 32 28 30 29 30 23 24 24 23 21 23 24 22 21 20 19 20 23 25 27 28
51 49 47 49 44 39 40 38 32 34 33 31 29 31 31 30 27 29 25 24 22 21 23 24 23 24 22 21 23 27 29 30
40 42 43 44 42 42 39 36 34 37 35 32 32 34 34 32 31 31 26 25 24 21 22 24 23 26 27 24 24 26 29 29
35 40 42 45 49 44 41 36 37 36 36 32 33 36 35 33 33 32 28 27 27 22 23 23 24 27 29 27 26 26 30 32
41 43 48 53 48 46 42 39 31 36 39 37 35 37 36 35 36 34 30 29 29 23 24 24 25 28 29 28 27 28 30 32
31 37 42 45 45 42 39 38 37 42 41 37 37 39 39 37 37 35 30 30 32 26 24 23 27 29 29 29 28 29 30 32
26 23 29 31 33 38 43 42 41 42 40 38 39 40 41 40 38 34 31 31 33 28 26 25 28 30 29 29 29 30 30 29
18 23 29 35 36 37 39 40 40 40 37 36 38 40 41 40 37 33 33 32 33 31 27 26 29 30 29 30 29 32 31 32
37 33 31 27 32 36 37 37 39 39 38 37 36 37 39 39 36 34 34 34 35 32 28 27 29 30 28 30 31 32 34 33
18 28 24 29 31 32 33 35 36 36 36 37 37 37 38 39 36 35 37 37 37 31 29 28 29 30 27 29 32 32 33 38
31 34 38 36 35 33 33 33 32 33 35 35 35 37 39 40 39 38 37 38 40 30 29 29 30 29 25 29 29 28 33 32
39 35 37 36 34 33 33 34 33 32 31 33 36 38 39 39 39 39 39 40 36 31 30 29 31 28 24 27 23 22 32 24
32 33 31 30 30 29 29 27 28 28 29 32 35 39 40 38 39 40 39 35 35 33 30 31 32 27 23 24 19 21 26 22
28 18 18 22 25 25 25 24 25 25 25 29 35 37 38 38 39 38 33 34 35 33 31 31 29 25 23 21 18 18 19 15
39 26 22 25 26 28 27 26 25 26 25 26 30 32 34 37 36 34 31 33 32 32 32 32 30 25 24 21 17 14 17 7
30 31 31 30 30 31 29 28 28 28 27 26 27 28 31 33 32 31 32 34 35 33 33 35 30 25 26 22 19 15 15 14
Wind_Direction
236 238 247 250 251 254 255 257 251 242 249 254 262 267 267 269 275 279 284 289 294 297 298 299 303 289 278 273 266 261 266 259
243 241 244 246 247 248 252 252 249 235 243 249 254 260 260 266 268 273 280 283 292 291 294 294 300 292 280 272 268 264 265 260
247 244 242 240 247 247 246 246 240 237 245 245 248 253 255 261 260 273 271 277 287 286 290 292 295 295 285 280 268 258 262 259
235 236 240 242 240 243 244 242 243 245 243 246 246 250 251 258 261 262 262 270 278 280 284 289 293 295 286 286 276 262 257 255
227 235 234 242 247 241 245 246 244 248 245 245 244 246 249 250 250 257 260 265 270 278 282 286 291 294 288 282 283 263 258 262
233 230 234 243 245 244 243 245 245 246 248 245 245 245 244 246 248 253 257 263 267 272 279 285 290 293 292 273 279 275 262 257
226 233 235 234 234 239 244 243 242 247 250 248 247 248 247 247 250 251 255 259 267 270 274 279 289 294 293 277 272 278 271 260
216 221 229 232 238 239 240 242 243 245 247 246 246 249 248 245 250 250 252 256 267 264 270 279 290 292 289 280 269 275 275 264
231 233 238 239 240 245 249 249 243 245 249 249 248 249 252 249 248 251 254 261 266 265 271 276 290 288 284 279 275 276 278 266
234 237 231 229 233 235 239 242 244 244 245 243 242 244 247 248 248 251 255 260 265 265 269 275 287 285 279 277 275 281 279 259
205 222 225 223 232 233 236 240 242 243 243 242 241 243 245 245 246 248 252 257 262 264 268 273 280 279 274 278 275 275 276 262
239 251 217 228 233 236 235 238 242 244 245 246 244 242 243 244 245 247 252 254 258 263 267 274 278 277 271 280 277 272 272 263
266 241 229 231 233 235 238 237 239 244 247 246 245 243 242 246 250 247 251 255 259 264 267 271 273 271 270 280 277 276 268 268
231 238 226 231 234 235 236 239 241 240 243 246 245 244 244 246 247 248 250 255 260 265 265 268 271 266 274 281 276 280 286 266
218 216 222 230 232 236 238 242 244 244 243 243 243 244 243 242 244 246 247 252 262 260 262 266 267 264 276 282 284 278 291 250
245 212 217 234 239 243 248 249 249 248 244 240 240 241 242 240 242 244 247 253 258 255 260 267 261 260 274 276 275 281 291 246
232 191 219 233 240 240 244 245 246 245 244 240 238 240 240 240 240 243 246 249 251 254 260 271 253 256 270 268 271 276 290 241
222 223 226 232 236 242 244 245 246 248 244 242 242 242 241 242 241 241 241 244 252 257 263 268 248 252 264 262 262 250 271 246
206 228 240 228 234 238 238 241 243 247 249 246 246 243 243 241 241 239 243 243 248 253 259 263 239 245 255 259 247 245 241 239
Height
5720 5726 5732 5737 5742 5747 5751 5753 5759 5763 5763 5765 5766 5768 5770 5770 5770 5770 5771 5769 5770 5769 5769 5769 5768 5767 5767 5767 5768 5769 5770 5772
5707 5716 5721 5726 5731 5737 5740 5744 5749 5755 5756 5758 5759 5760 5761 5764 5764 5764 5765 5765 5765 5765 5764 5764 5764 5764 5763 5762 5763 5764 5765 5765
5698 5704 5708 5713 5719 5725 5731 5735 5740 5744 5747 5750 5751 5753 5755 5755 5757 5759 5759 5759 5760 5759 5759 5759 5759 5759 5758 5757 5757 5757 5759 5760
5685 5692 5697 5702 5709 5717 5722 5726 5731 5735 5738 5740 5744 5745 5747 5749 5750 5751 5751 5752 5753 5753 5754 5753 5753 5753 5751 5751 5750 5751 5751 5753
5675 5682 5687 5692 5699 5708 5710 5716 5722 5724 5728 5732 5735 5737 5739 5741 5741 5743 5744 5745 5746 5747 5747 5747 5746 5746 5746 5744 5744 5745 5744 5747
5664 5671 5678 5683 5689 5693 5700 5706 5712 5714 5718 5723 5725 5727 5729 5732 5733 5734 5736 5737 5739 5740 5740 5740 5739 5739 5739 5738 5737 5737 5737 5739
5655 5660 5665 5672 5677 5684 5689 5696 5702 5706 5709 5713 5716 5718 5721 5724 5726 5727 5729 5730 5731 5732 5732 5733 5733 5732 5731 5730 5729 5730 5730 5731
5639 5646 5652 5661 5670 5674 5680 5686 5694 5696 5699 5704 5707 5709 5712 5715 5717 5719 5721 5722 5723 5725 5724 5725 5725 5724 5723 5723 5722 5722 5722 5723
5633 5642 5648 5656 5662 5667 5671 5677 5683 5685 5689 5696 5699 5700 5702 5706 5708 5711 5713 5714 5715 5717 5716 5717 5717 5717 5715 5714 5714 5715 5715 5715
5626 5633 5639 5646 5652 5656 5659 5664 5670 5676 5680 5685 5687 5690 5692 5695 5699 5702 5705 5706 5707 5709 5709 5710 5709 5708 5708 5707 5706 5706 5706 5707
5621 5626 5630 5635 5642 5647 5651 5655 5660 5664 5669 5674 5678 5680 5682 5686 5689 5694 5696 5698 5699 5700 5701 5703 5702 5700 5699 5698 5698 5697 5697 5699
5614 5616 5624 5629 5633 5638 5643 5647 5650 5655 5659 5663 5668 5671 5674 5678 5681 5684 5686 5690 5690 5691 5693 5694 5693 5692 5692 5690 5689 5689 5688 5688
5603 5606 5614 5621 5626 5630 5633 5638 5642 5646 5649 5654 5658 5662 5665 5669 5672 5675 5677 5679 5680 5684 5685 5685 5684 5683 5683 5682 5680 5680 5679 5679
5596 5601 5606 5612 5617 5621 5625 5629 5633 5638 5641 5644 5648 5652 5656 5659 5662 5665 5668 5670 5671 5676 5677 5677 5676 5675 5674 5673 5672 5670 5668 5664
5584 5590 5598 5603 5607 5611 5616 5620 5624 5629 5633 5636 5639 5643 5646 5649 5652 5655 5658 5660 5664 5667 5668 5669 5668 5667 5666 5665 5664 5661 5659 5655
5582 5587 5593 5597 5600 5605 5610 5613 5616 5620 5624 5628 5630 5634 5637 5640 5643 5645 5649 5652 5655 5657 5659 5660 5660 5659 5659 5659 5657 5655 5650 5648
5581 5583 5587 5592 5596 5600 5604 5607 5610 5613 5617 5620 5622 5625 5627 5630 5632 5636 5640 5643 5646 5648 5651 5652 5652 5652 5652 5653 5652 5650 5647 5642
5573 5579 5582 5587 5591 5594 5597 5600 5603 5607 5609 5612 5614 5616 5618 5621 5624 5628 5631 5635 5637 5639 5642 5644 5644 5645 5646 5647 5647 5646 5646 5642
5563 5569 5575 5582 5585 5588 5590 5593 5596 5599 5602 5604 5606 5608 5609 5613 5616 5619 5622 5625 5627 5630 5633 5635 5637 5638 5639 5641 5641 5642 5641 5642